TimeMST,TemperatureF,Dew PointF,Humidity,Sea Level PressureIn,VisibilityMPH,Wind Direction,Wind SpeedMPH,Gust SpeedMPH,PrecipitationIn,Events,Conditions,WindDirDegrees,DateUTC
12:53 AM,17.1,8.1,68,30.45,10.0,Calm,Calm,-,N/A,,Clear,0,2012-11-23 07:53:00
1:53 AM,16.0,7.0,68,30.47,10.0,South,3.5,-,N/A,,Clear,180,2012-11-23 08:53:00
2:53 AM,15.1,7.0,70,30.50,10.0,Calm,Calm,-,N/A,,Clear,0,2012-11-23 09:53:00
3:53 AM,18.0,8.1,65,30.45,10.0,NE,3.5,-,N/A,,Clear,50,2012-11-23 10:53:00
4:53 AM,15.1,7.0,70,30.52,10.0,SE,4.6,-,N/A,,Clear,140,2012-11-23 11:53:00
5:53 AM,12.9,6.1,74,30.53,10.0,ESE,6.9,-,N/A,,Clear,110,2012-11-23 12:53:00
6:53 AM,15.1,6.1,68,30.54,10.0,SSE,5.8,-,N/A,,Clear,150,2012-11-23 13:53:00
7:53 AM,19.0,10.0,68,30.52,10.0,SE,6.9,-,N/A,,Clear,140,2012-11-23 14:53:00
8:53 AM,30.0,10.0,43,30.49,10.0,Calm,Calm,-,N/A,,Clear,0,2012-11-23 15:53:00
9:53 AM,37.9,7.0,28,30.45,10.0,Calm,Calm,-,N/A,,Clear,0,2012-11-23 16:53:00
10:53 AM,42.1,5.0,22,30.42,10.0,Calm,Calm,-,N/A,,Clear,0,2012-11-23 17:53:00
11:53 AM,46.0,7.0,20,30.39,10.0,Calm,Calm,-,N/A,,Clear,0,2012-11-23 18:53:00
12:53 PM,50.0,7.0,18,30.33,10.0,WSW,19.6,-,N/A,,Clear,250,2012-11-23 19:53:00
1:53 PM,50.0,8.1,18,30.33,10.0,West,21.9,26.5,N/A,,Clear,260,2012-11-23 20:53:00
2:53 PM,46.9,9.0,21,30.35,10.0,WSW,11.5,-,N/A,,Clear,250,2012-11-23 21:53:00
3:53 PM,44.1,10.0,25,30.35,10.0,West,15.0,-,N/A,,Clear,260,2012-11-23 22:53:00
4:53 PM,39.9,10.9,31,30.38,10.0,WSW,13.8,-,N/A,,Clear,250,2012-11-23 23:53:00
5:53 PM,37.0,10.9,34,30.41,10.0,West,11.5,-,N/A,,Clear,260,2012-11-24 00:53:00
6:53 PM,36.0,10.9,36,30.38,10.0,SSW,5.8,-,N/A,,Clear,210,2012-11-24 01:53:00
7:53 PM,30.9,10.9,43,30.39,10.0,SSW,9.2,-,N/A,,Clear,210,2012-11-24 02:53:00
8:53 PM,30.0,10.9,45,30.32,10.0,South,9.2,-,N/A,,Clear,190,2012-11-24 03:53:00
9:53 PM,34.0,12.9,42,30.24,10.0,South,11.5,-,N/A,,Clear,180,2012-11-24 04:53:00
10:53 PM,37.9,12.9,36,30.17,10.0,West,4.6,-,N/A,,Clear,270,2012-11-24 05:53:00
11:53 PM,37.9,12.0,35,30.14,10.0,NW,5.8,-,N/A,,Clear,310,2012-11-24 06:53:00